GFSFLT2_925_spd_057.txt.gz
Wind_Speed
26 21 17 20 18 20 20 21 21 21 22 22 23 24 24 24 23 21 19 18 18 17 16 15 17 19 18 17 17 16 14 16
25 22 20 17 19 20 19 20 20 20 21 22 23 22 22 20 19 18 17 16 15 14 16 15 12 12 15 15 14 14 13 13
30 28 20 14 16 17 19 20 21 20 21 21 20 19 19 17 17 16 16 15 14 13 13 13 11 10 10 10 11 11 10 10
29 27 20 17 20 20 20 21 22 21 22 20 19 18 16 15 15 14 12 12 11 12 12 12 11 11 10 11 13 11 12 11
22 24 20 22 21 21 21 21 20 22 21 19 17 15 14 13 13 11 9 9 11 11 11 12 11 9 9 10 11 12 13 13
29 25 21 22 20 21 21 22 21 20 17 16 14 14 11 11 10 10 10 13 14 12 11 10 9 9 9 8 10 12 12 11
28 21 24 21 21 20 21 21 19 17 16 14 12 14 12 12 11 14 15 14 12 10 9 7 9 10 10 10 13 14 12 11
24 23 24 22 24 23 23 21 18 16 15 14 14 15 14 15 18 18 15 11 10 9 9 8 10 10 10 11 12 13 14 14
25 28 26 25 25 24 22 20 19 16 15 13 14 16 17 19 19 16 14 10 8 9 8 8 9 11 11 9 11 14 10 12
28 27 26 25 25 24 22 23 19 16 14 15 16 16 17 18 17 15 13 10 6 6 8 10 11 10 9 9 12 11 8 12
32 30 28 27 26 24 24 22 18 16 14 14 16 16 18 16 15 15 11 7 5 6 8 9 7 8 5 8 12 2 7 10
29 31 29 27 26 25 23 20 17 15 14 15 18 19 17 16 14 13 9 6 5 5 6 6 5 5 3 14 5 6 5 5
30 32 31 31 29 26 22 20 17 17 18 21 19 19 17 14 13 11 8 4 4 3 2 4 3 7 4 10 3 8 6 4
31 33 35 33 31 28 24 22 19 20 22 20 18 17 16 13 10 9 8 5 5 5 4 2 3 7 5 3 2 5 4 18
38 38 38 36 32 27 19 21 16 19 21 20 19 16 15 13 10 9 9 7 8 5 3 3 3 3 4 2 2 3 5 2
41 40 40 38 33 29 25 24 18 21 24 23 21 18 15 13 11 10 9 9 8 6 4 3 4 3 4 2 6 10 3 3
36 36 37 37 32 29 24 19 19 19 24 23 21 18 16 15 13 13 10 8 6 3 2 3 3 3 4 5 7 8 10 9
35 40 41 36 33 28 24 21 22 21 23 22 21 18 14 13 12 11 7 4 2 3 4 6 6 8 9 10 10 6 5 8
31 33 32 36 33 29 26 24 24 26 25 26 26 20 15 15 16 9 2 2 6 13 8 8 9 10 11 11 9 9 10 14
28 30 32 36 30 27 29 26 28 27 24 26 25 20 21 16 6 4 3 12 17 8 7 9 11 10 5 6 9 11 14 17

GFSFLT2_925_spd_060.txt.gz
Wind_Speed
29 28 28 24 22 18 19 21 23 21 20 22 25 26 27 26 23 22 22 22 21 22 22 22 21 19 17 16 14 13 13 14
23 25 32 27 17 16 20 18 20 20 20 23 24 24 23 22 19 18 18 19 19 20 20 18 17 15 14 13 12 10 11 11
29 30 24 25 20 12 15 18 18 19 20 22 22 22 21 18 17 17 17 17 17 16 16 16 15 14 13 12 10 8 7 8
40 31 22 21 14 15 16 19 20 20 22 21 20 19 18 17 16 15 16 14 14 14 13 13 12 13 14 13 12 10 10 9
26 33 30 18 16 16 18 19 20 21 21 21 19 18 17 15 14 14 14 13 14 14 12 12 11 10 10 11 10 8 9 9
30 33 26 16 17 17 18 19 21 22 21 19 18 16 15 14 12 12 14 13 14 12 12 11 10 10 10 10 9 8 8 9
35 26 20 19 19 19 20 22 20 20 18 18 15 14 13 13 13 14 15 14 13 12 11 11 11 10 11 11 10 10 12 12
30 23 19 20 20 20 21 21 19 18 16 15 13 15 14 14 16 17 17 14 12 11 11 11 12 9 10 11 12 12 12 12
28 22 20 22 20 21 21 22 19 16 15 15 14 16 17 18 18 17 15 13 10 9 10 10 9 9 10 10 12 10 9 13
18 20 22 20 21 21 21 19 17 17 16 15 17 17 18 18 18 17 15 12 8 8 8 8 9 9 8 8 9 7 11 11
19 20 23 22 21 21 21 19 19 19 16 16 15 18 17 17 18 17 13 11 9 6 8 6 9 7 5 9 3 9 8 8
22 22 24 24 23 22 20 21 20 15 15 15 16 18 19 18 17 16 14 12 9 7 7 7 6 4 2 7 3 12 7 4
24 28 26 26 25 23 22 22 19 17 16 16 19 19 19 18 18 16 13 9 6 5 7 7 4 4 1 2 3 11 6 2
28 31 32 31 30 29 25 24 19 18 18 18 19 19 18 18 16 14 12 8 7 7 6 6 4 5 4 2 3 4 7 8
34 33 33 33 33 29 22 22 18 19 20 20 20 19 18 16 15 13 12 9 9 8 5 3 4 3 3 1 1 3 4 4
33 33 33 35 33 32 31 32 22 22 23 23 21 21 19 18 16 14 13 10 8 7 6 2 3 1 1 4 5 7 2 3
32 33 34 37 37 36 33 28 24 20 24 25 23 20 19 17 16 15 12 9 6 3 1 2 4 3 2 4 7 11 12 10
32 35 37 36 36 36 33 25 24 20 24 27 24 20 18 16 14 12 12 10 3 2 5 4 4 4 5 8 10 8 7 10
34 34 31 36 37 37 33 28 26 25 26 30 27 25 21 19 18 20 16 7 5 7 5 8 7 7 8 8 7 9 10 12
30 30 31 34 34 36 34 31 29 24 23 28 29 26 23 22 22 16 3 4 2 4 9 11 9 8 6 6 8 11 13 15

GFSFLT2_925_spd_063.txt.gz
Wind_Speed
27 27 29 31 28 25 28 29 30 27 27 29 28 28 28 26 26 26 26 26 26 25 24 21 19 17 15 14 11 11 11 10
29 33 31 19 28 26 25 26 28 29 27 27 26 25 24 23 23 22 21 22 23 22 20 19 16 15 13 10 9 10 11 9
29 35 28 26 15 25 20 22 25 27 28 27 26 24 21 18 19 20 22 21 21 19 18 15 14 14 12 10 8 9 8 8
35 33 31 31 22 16 23 23 24 27 28 27 25 22 20 19 18 18 18 20 21 19 17 15 14 14 12 10 11 10 9 7
36 35 28 25 21 18 19 20 23 24 25 25 23 21 19 18 18 17 20 18 18 16 14 13 12 11 11 10 8 8 8 7
41 33 33 27 19 15 18 20 21 24 23 22 22 20 18 17 18 18 17 16 16 13 11 11 10 9 9 8 8 8 7 5
43 37 27 15 12 14 16 18 21 24 23 20 19 19 19 17 17 18 16 16 14 13 10 8 9 8 8 8 8 7 8 7
29 19 17 14 18 19 19 19 19 21 20 20 18 16 17 18 20 17 18 16 14 11 9 7 8 7 8 9 8 7 8 8
20 14 16 16 16 17 17 19 20 21 21 20 17 18 18 20 19 20 18 17 14 11 9 8 7 8 8 8 6 5 7 9
19 17 14 15 15 17 19 20 21 20 19 21 19 20 20 19 21 20 19 16 13 9 9 8 8 6 6 7 4 5 6 6
21 20 18 18 16 18 19 21 20 19 19 19 19 19 18 21 21 21 18 14 12 9 9 7 6 5 4 5 2 6 5 4
20 19 18 19 18 20 21 21 20 19 19 18 16 17 21 21 21 19 17 14 12 9 8 8 5 3 1 4 3 9 7 3
24 22 22 25 24 22 20 21 21 21 18 16 17 20 22 21 22 19 16 14 11 9 9 6 3 0 2 2 3 9 8 5
25 25 25 26 25 25 21 21 21 20 19 19 21 21 21 23 20 19 17 14 12 11 8 6 3 2 2 1 1 4 10 12
30 26 28 27 24 23 20 21 18 19 20 21 22 22 22 21 20 18 17 14 12 10 9 7 5 4 2 3 2 1 6 5
26 25 26 27 28 24 27 21 18 17 22 25 24 22 22 21 20 19 17 15 13 12 10 7 3 3 3 6 5 3 3 5
28 26 26 27 29 28 27 20 19 20 22 24 24 24 22 21 21 20 20 18 17 14 9 4 3 5 4 3 5 5 7 8
27 24 24 25 28 28 28 25 23 19 18 23 23 24 24 23 24 23 22 21 19 14 8 7 5 6 7 5 6 6 7 8
25 24 24 28 30 29 31 30 28 25 22 27 26 24 27 29 29 27 26 24 18 10 8 8 8 8 8 7 7 7 8 10
27 26 26 27 33 33 35 35 31 27 29 28 29 32 32 30 28 27 25 19 10 8 8 9 7 8 9 8 6 7 8 11

GFSFLT2_925_spd_069.txt.gz
Wind_Speed
27 25 25 30 28 29 31 31 30 30 31 32 32 30 26 26 24 24 23 24 23 21 18 16 13 12 11 13 14 12 10 9
31 25 22 32 26 28 29 30 31 31 31 31 29 28 25 25 23 23 24 24 22 19 16 14 12 10 10 12 10 10 8 8
27 37 39 37 36 18 25 24 27 27 28 27 25 22 22 21 21 24 24 22 19 17 14 11 10 9 10 12 8 6 5 7
36 40 43 44 38 34 21 24 25 24 24 24 20 21 17 19 22 21 20 19 18 15 13 11 8 6 4 8 5 5 6 7
36 42 44 35 35 33 28 24 23 21 19 19 19 15 19 17 19 17 18 16 14 14 9 4 5 5 4 5 4 4 4 5
29 37 34 30 30 33 28 28 20 17 16 15 16 17 16 15 15 15 14 12 13 9 6 6 6 6 6 5 3 3 3 4
32 32 29 29 27 32 27 21 17 18 13 16 17 16 15 15 15 14 13 12 11 9 9 6 6 5 3 3 4 5 5 2
34 36 33 32 33 26 27 14 15 16 17 18 17 16 15 14 14 14 13 13 11 10 8 6 5 5 3 4 4 2 2 2
37 34 34 33 33 26 17 17 21 20 20 19 16 14 14 13 14 14 13 12 11 10 8 7 6 4 3 2 2 2 2 3
31 38 35 31 26 23 25 23 20 21 20 17 15 12 13 13 14 14 13 12 12 10 9 7 6 5 3 1 1 1 2 2
30 29 23 22 20 22 17 16 17 17 15 15 14 13 14 13 14 14 15 13 12 11 10 9 6 6 5 2 2 4 4 4
26 22 20 20 18 15 15 15 17 17 16 15 15 14 14 13 14 14 15 14 13 12 11 8 8 6 5 4 4 5 6 6
24 22 19 17 16 17 17 18 19 19 16 15 16 15 15 16 15 15 16 15 14 13 11 10 8 6 6 8 9 8 8 9
23 21 20 19 18 17 17 18 19 19 15 14 15 15 15 17 17 17 17 15 15 15 14 12 9 7 6 5 4 2 9 12
24 21 20 19 18 17 16 16 16 18 17 15 16 17 18 20 19 18 18 17 17 17 15 14 11 8 5 3 2 4 9 10
26 24 23 21 19 18 20 19 20 19 17 15 16 18 19 20 19 19 20 19 18 18 17 15 13 12 8 5 6 6 4 5
27 27 24 23 23 22 21 20 19 17 18 17 21 16 18 19 18 19 21 22 21 19 17 15 12 9 8 5 7 10 13 10
28 28 28 25 24 25 24 22 22 21 16 17 17 17 18 25 22 23 21 22 19 18 16 14 11 6 6 8 9 11 11 13
29 28 29 29 27 27 27 26 23 21 18 20 19 20 22 25 26 24 23 22 19 17 16 15 13 6 6 8 10 13 12 13
30 29 30 30 29 29 27 26 24 21 22 21 22 22 22 20 28 26 22 20 18 16 15 12 7 8 7 9 14 14 12 13

GFSFLT2_925_spd_075.txt.gz
Wind_Speed
14 14 25 23 44 41 39 37 37 36 34 34 35 34 34 32 29 29 29 27 24 22 20 19 17 20 19 19 22 19 19 19
24 19 8 25 40 41 40 39 37 36 35 36 36 36 33 31 28 27 27 24 22 20 18 17 18 20 16 18 19 22 17 18
21 26 20 18 28 30 33 34 33 34 33 34 35 34 32 29 27 26 25 21 19 18 17 17 18 16 14 15 16 14 14 13
25 26 28 30 32 25 25 28 31 32 32 31 32 31 30 29 26 25 23 20 17 15 15 14 14 11 11 13 14 11 12 12
32 35 35 36 38 37 31 30 32 30 29 32 28 27 29 28 26 23 21 19 18 15 13 10 9 10 10 11 12 11 10 10
31 38 39 43 43 39 36 34 32 25 28 24 25 26 27 26 25 21 20 17 17 12 10 9 7 6 9 10 11 10 7 8
27 33 33 42 42 43 41 37 29 23 26 21 23 26 26 24 22 20 17 16 15 10 9 7 7 9 8 9 11 6 5 4
27 30 36 27 37 39 39 30 23 26 26 21 19 20 21 17 18 18 16 14 12 12 8 7 9 6 8 7 9 7 5 5
26 34 34 35 35 35 33 33 31 31 26 20 18 13 12 17 17 17 17 18 15 13 8 9 11 6 6 6 7 8 7 7
28 32 39 40 36 38 39 33 34 26 26 17 15 14 15 17 19 18 18 19 17 13 14 12 11 10 6 6 8 10 8 5
29 33 35 34 30 30 30 31 29 28 29 17 15 16 19 18 22 19 19 18 19 18 17 15 13 12 12 12 12 9 6 7
27 31 33 32 32 33 34 29 22 27 28 21 24 26 21 22 22 24 21 21 20 20 18 16 16 13 16 17 14 11 11 10
27 29 35 33 34 33 31 26 30 34 33 32 29 26 28 26 25 24 24 26 23 22 20 19 13 17 11 12 15 15 15 15
30 31 35 34 33 32 25 31 32 33 28 30 32 31 28 26 27 25 25 28 25 25 24 20 20 16 11 4 1 7 17 18
31 34 36 37 35 30 26 24 27 30 27 28 31 30 30 30 27 26 27 31 28 28 29 27 23 19 19 7 1 4 4 13
37 35 35 38 37 32 29 25 24 28 36 34 33 33 31 29 26 27 27 32 31 29 31 30 24 22 20 19 8 4 3 1
37 38 37 35 37 35 33 31 33 31 34 36 39 36 32 31 28 25 29 31 30 26 30 28 28 22 27 21 16 10 8 3
35 36 36 39 41 42 37 37 36 33 31 37 39 36 36 34 30 29 30 29 30 30 31 34 30 27 24 20 14 7 8 7
36 37 36 43 43 39 40 45 39 39 37 35 35 36 38 37 34 32 31 31 28 26 27 26 27 19 22 18 10 6 6 7
39 38 35 36 38 43 42 43 46 39 39 37 40 40 39 37 36 32 29 27 28 23 23 21 19 19 19 18 14 11 12 13